Location: Innsbruck
(47.2657°N, 11.3914°E)
Time: 00:52:10
(UTC+01:00)

BEESAT 2 - Pass Details

Date: 06 December 2021
Orbit: 498 x 513 km, 64.9° (Epoch: 25 January)

Event Time Altitude Azimuth Distance (km) Brightness Sun altitude
Exits shadow 06:16:30 24° 311° (NW) 1,105 ? -14.5°
Maximum altitude 06:18:42 63° 237° (WSW) 579 ? -14.2°
Drops below altitude 10° 06:22:33 10° 156° (SSE) 1,733 ? -13.6°
Sets 06:24:43 0° 153° (SSE) 2,613 ? -13.2°
